TIME,DELAY(SENSOR),PRES,OXYGEN,RAWTEMP,T(OPTODE),TCPHASE,FLUOR,BETA(BETA700),BETA(BETA412),BETA(BETA440),CDOM,C(CSC),ED(ED411.90),ED(ED443.80),ED(ED489.40),ED(ED554.70),LU(LU412.20),LU(LU443.80),LU(LU489.40),LU(LU555.00),COMP,TILTX,TILTY,CHECK
1371509079,5807,846.2299804687500000,156.6371002197265600,400.1354980468750000,10.5985698699951170,39.2350997924804700,52,101,95,80,81,10575,2146961234,2147514523,2147284845,2147493897,2147081965,2146933750,2147699940,2147124745,333,-1,8,28153
1371512675,5807,961.4600219726562000,170.9351959228515600,475.9522094726562500,8.2736816406250000,39.4194183349609400,51,108,95,80,79,10559,2146963026,2147514441,2147291547,2147506560,2147088539,2146928365,2147710701,2147122898,236,-1,8,18608
1371516275,5804,978.7899780273438000,181.2332000732422000,488.0570983886719000,7.8995437622070310,38.9077682495117200,52,105,94,79,80,10565,2146963209,2147517385,2147292352,2147510829,2147085961,2146925897,2147718628,2147118646,3095,-1,8,58876
1371519875,5804,982.3200073242188000,186.1510925292968800,489.8922119140625000,7.8427438735961910,38.6095314025878900,52,105,96,79,81,10561,2146961353,2147519414,2147292928,2147509476,2147088402,2146923510,2147718080,2147121462,3182,-1,8,60687
1371523475,5805,990.6900024414062000,182.9066925048828000,490.7629089355469000,7.8157839775085450,38.8409309387207000,51,102,96,79,80,10396,2146958674,2147517156,2147293476,2147509814,2147085961,2146920740,2147714185,2147120914,3474,-1,8,18586
1371527075,5808,993.4299926757812000,177.9335021972656200,491.0823059082031000,7.8058929443359375,39.1856803894043000,53,102,96,81,81,10397,2146962596,2147513920,2147295177,2147509595,2147085604,2146926308,2147721508,2147120987,262,-1,8,45477
1371530675,5807,985.2899780273438000,182.7720031738281200,492.9862976074219000,7.7469248771667480,38.8878288269043000,52,103,96,79,80,10391,2146960566,2147517860,2147293988,2147512301,2147086784,2146925577,2147721581,2147122907,327,0,8,49908
1371534275,5807,986.8200073242188000,179.6119995117187500,497.3310852050781000,7.6122708320617680,39.1784400939941400,52,102,96,79,81,10387,2146962944,2147519561,2147295826,2147510299,2147086765,2146922212,2147713380,2147119561,756,-1,8,35093
1371537875,5806,984.3200073242188000,185.6311035156250000,497.5419006347656000,7.6057338714599610,38.7764701843261700,51,102,94,79,79,10387,2146960484,2147516434,2147297316,2147513545,2147083995,2146918756,2147716525,2147123456,3357,-1,8,64839
1371541475,5803,989.3300170898438000,190.6401062011718800,497.5820922851562500,7.6044859886169430,38.4484405517578100,53,104,95,80,80,10390,2146963008,2147519195,2147295844,2147513005,2147087314,2146920950,2147715346,2147120493,3471,-1,8,5998
1371545075,5804,988.2299804687500000,190.6089019775390600,497.7103881835937500,7.6005091667175290,38.4521903991699200,53,107,103,80,79,10393,2146960512,2147519277,2147298102,2147512612,2147087424,2146917942,2147714870,2147121746,3426,-1,8,39796
1371548675,5804,982.6599731445312000,194.2725982666015600,498.8792114257812500,7.5642628669738770,38.2385902404785160,53,103,96,79,80,10389,2146961051,2147518089,2147293613,2147514560,2147086784,2146924278,2147716827,2147121645,3310,-1,8,15899
1371552275,5807,991.0300292968750000,192.2129058837890600,498.3052062988281000,7.5820641517639160,38.3595008850097660,53,104,98,79,80,10378,2146961106,2147515712,2147296667,2147510473,2147082587,2146919387,2147713755,2147121024,89,0,8,41420
1371555875,5805,999.6900024414062000,188.6473999023437500,497.3550109863281000,7.6115269660949710,38.5741195678710940,51,104,98,79,80,10368,2146962532,2147522368,2147296502,2147513206,2147083794,2146920649,2147715529,2147122953,142,-1,8,26923
1371559475,5807,995.4099731445312000,189.0460968017578000,494.6867065429687500,7.6942420005798340,38.5014381408691400,51,100,96,79,80,10370,2146965037,2147515904,2147296192,2147513298,2147086336,2146918875,2147715702,2147122066,998,-1,8,56019
1371563075,5805,999.0800170898438000,183.3845062255859400,494.9325866699219000,7.6866178512573240,38.8802490234375000,51,105,96,101,81,10371,2146962660,2147518546,2147297700,2147511030,2147089197,2146920146,2147715766,2147119040,2970,-1,8,18604
1371566675,5806,996.7500000000000000,182.8233947753906200,495.7414855957031000,7.6615509986877440,38.9329490661621100,52,105,95,79,82,10368,2146962742,2147516498,2147297435,2147512704,2147084982,2146926902,2147715876,2147120539,131,-1,8,62983
1371570275,5804,995.9699707031250000,184.6900024414062500,495.8301086425781000,7.6588039398193360,38.8089485168457000,52,104,98,79,80,10362,2146963803,2147520475,2147295716,2147510994,2147085184,2146923291,2147716315,2147122459,3559,-1,8,24484
1371573875,5808,998.8499755859375000,173.6291046142578000,495.9164123535156000,7.6561269760131840,39.5703582763671900,52,109,95,79,80,10362,2146963081,2147517440,2147293760,2147512813,2147083510,2146925632,2147717906,2147120411,224,-1,8,18412
1371577475,5806,1000.0399780273438000,189.2160949707031200,494.8853149414062500,7.6880841255187990,38.4939689636230500,53,109,96,78,81,10362,2146959259,2147516992,2147297344,2147511707,2147085851,2146919808,2147713920,2147120978,3403,-1,8,38709
1371581075,5805,999.9699707031250000,185.8236999511718800,495.5483093261719000,7.6675381660461430,38.7282905578613300,52,99,96,80,80,10362,2146961417,2147521270,2147295168,2147510464,2147086902,2146923858,2147714441,2147122797,3266,-1,8,59624
1371584675,5807,1003.4600219726562000,185.1770935058593800,495.4088134765625000,7.6718602180480960,38.7691993713378900,52,102,96,79,81,10361,2146961563,2147518482,2147294921,2147510235,2147084626,2146918482,2147718281,2147123922,838,-1,8,31084
1371588275,5807,995.8800048828125000,190.7241058349609400,495.8293151855469000,7.6588277816772460,38.4120597839355500,52,103,94,81,81,10361,2146962505,2147518573,2147293513,2147513545,2147084873,2146920676,2147718573,2147123620,2581,-1,8,1836
1371591875,5803,996.2100219726562000,192.7169036865234400,495.4572143554687500,7.6703600883483890,38.2777900695800800,51,103,96,78,80,10359,2146962112,2147517961,2147294189,2147511296,2147085339,2146919442,2147713444,2147118619,2611,-1,8,6453
1371595475,5804,999.8499755859375000,193.9786987304687500,496.6453857421875000,7.6335301399230960,38.2181892395019500,52,103,96,79,80,10324,2146962112,2147517787,2147295963,2147512987,2147085065,2146923328,2147720192,2147120585,3171,-1,8,1258
1371599075,5806,998.5499877929688000,193.6336059570312500,498.6583862304687500,7.5711121559143070,38.2752189636230500,52,101,97,82,80,10321,2146963593,2147520146,2147292288,2147511021,2147085714,2146919899,2147713289,2147120329,2879,-1,8,15416
1371602675,5804,996.3300170898438000,192.6544952392578000,499.1029968261719000,7.5573201179504395,38.3446006774902340,52,102,96,79,79,10296,2146962660,2147518281,2147295323,2147514276,2147085641,2146924681,2147713947,2147121042,3530,-1,8,30537
1371606275,5803,1001.7700195312500000,194.7066955566406200,497.7909851074219000,7.5980091094970700,38.1916503906250000,53,102,97,78,80,10315,2146963611,2147522870,2147296173,2147515940,2147086710,2146921298,2147718144,2147121307,3174,-1,8,32608
1371609875,5805,996.2100219726562000,192.6513061523437500,499.1398925781250000,7.5561761856079100,38.3460311889648440,52,102,95,80,80,10312,2146961654,2147518674,2147293833,2147513947,2147086445,2146916406,2147714825,2147121782,2961,-1,8,46082
1371613475,5804,997.0000000000000000,190.3880004882812500,499.2875976562500000,7.5515937805175780,38.4946899414062500,52,101,95,79,80,10314,2146963346,2147518226,2147294793,2147511497,2147085458,2146924608,2147716562,2147120704,3196,-1,8,61769
1371617075,5807,998.0700073242188000,192.3627929687500000,497.9502868652344000,7.5930681228637695,38.3435211181640600,53,101,96,80,79,10309,2146961435,2147520329,2147294838,2147511597,2147088347,2146919853,2147715026,2147122834,749,-1,8,22998
1371620675,5806,999.4600219726562000,191.9008941650390600,497.7492980957031000,7.5993008613586430,38.3701210021972660,52,103,98,80,80,10309,2146966006,2147518921,2147293476,2147509796,2147086180,2146922989,2147713700,2147123273,1304,-1,8,41138
1371624275,5805,1002.6300048828125000,188.4895935058593800,497.6828002929687500,7.6013641357421875,38.5902481079101560,51,102,95,79,80,10306,2146961307,2147517897,2147298249,2147512356,2147085970,2146921709,2147716461,2147119478,3045,-1,8,17589
1371627875,5801,1001.8599853515625000,185.3213958740234400,497.5321960449219000,7.6060361862182620,38.7964210510253900,53,99,97,81,80,10307,2146961152,2147518747,2147296731,2147513609,2147086080,2146923620,2147710445,2147119616,3562,-1,8,10782
1371631475,5807,997.1599731445312000,189.1894989013672000,499.0575866699219000,7.5587291717529300,38.5678215026855500,52,109,96,80,80,10303,2146963254,2147517348,2147297234,2147512557,2147086445,2146920000,2147717595,2147118244,3544,-1,8,53990
1371635075,5804,1003.2299804687500000,191.2100067138672000,497.1777038574219000,7.6170239448547360,38.4041099548339840,52,105,95,79,81,10294,2146961197,2147518253,2147295332,2147508388,2147089408,2146921042,2147719232,2147121270,1001,-1,8,47490
1371638675,5806,1004.5800170898438000,187.7409973144531200,497.1910095214844000,7.6166138648986820,38.6305694580078100,52,99,96,80,80,10305,2146959762,2147519661,2147294738,2147511451,2147084562,2146918153,2147717696,2147120146,1032,-1,8,57192
1371642275,5807,999.6500244140625000,194.7861022949218800,498.0104064941406000,7.5912051200866700,38.1905708312988300,52,101,95,83,80,10300,2146960923,2147520329,2147295588,2147512128,2147084818,2146918720,2147712850,2147118573,26,-1,8,59786
1371645875,5807,1000.1699829101562000,194.9891967773437500,499.1476135253906000,7.5559339523315430,38.1967391967773440,51,100,94,79,80,10297,2146962688,2147521572,2147293001,2147512594,2147086820,2146917193,2147714697,2147120054,414,-1,8,59711
1371649475,5805,1005.9000244140625000,194.6737976074218800,497.6088867187500000,7.6036567687988280,38.1908493041992200,52,104,95,79,81,10290,2146962358,2147518025,2147294116,2147510802,2147086601,2146920950,2147716022,2147119204,2846,-1,8,62501
1371651954,5803,1004.2399902343750000,194.1316070556640600,497.6567077636719000,7.6021752357482910,38.2257499694824200,53,107,96,80,80,10442,2146962724,2147518994,2147294610,2147510473,2147087323,2146919442,2147715766,2147119908,2945,-1,8,37033
